Fairbanks, AK

7:26 AM AKST on December 07, 2016 (GMT -0900)
Fairbanks International

Weather History for PAFA - December, 2012

Change the Weather History Date:

Thursday, December 6, 2012

  Actual Average Record
Temperature  
Mean Temperature -23 °F -3 °F  
Max Temperature -16 °F 6 °F 51 °F (1934)
Min Temperature -31 °F -10 °F -58 °F (1935)
Degree Days  
Heating Degree Days 88 68  
Month to date heating degree days 565 405  
Since 1 July heating degree days 5054 4536  
Cooling Degree Days 0 0  
Month to date cooling degree days 0 0  
Year to date cooling degree days 34 61  
Moisture  
Dew Point -31 °F    
Average Humidity 70    
Maximum Humidity 77    
Minimum Humidity 52    
Precipitation  
Precipitation 0.00 in 0.02 in 0.21 in (2008)
Month to date precipitation T 0.11  
Year to date precipitation 9.43 10.28  
Snow  
Snow 0.00 in 0.40 in 2.80 in (2008)
Month to date snowfall 0.1 2.2  
Since 1 July snowfall 11.4 28.0  
Snow Depth 5.00 in    
Sea Level Pressure  
Sea Level Pressure 30.06 in    
Wind  
Wind Speed 0 mph (ENE)    
Max Wind Speed 4 mph    
Max Gust Speed -    
Visibility 10 miles    
Events      
T = Trace of Precipitation, MM = Missing Value Source: NWS Daily Summary

Daily Weather History Graph

Daily Weather History Graph

Search for Another Location

Airport or City:

Trip Planner

Search our weather history database for the weather conditions in past years. The results will help you decide how hot, cold, wet, or windy it might be!

Date:

Astronomy

Dec. 06, 2012 Rise Set
Actual Time 10:34 AM AKST 2:50 PM AKST
Civil Twilight 9:15 AM AKST 4:09 PM AKST
Nautical Twilight 8:06 AM AKST 5:19 PM AKST
Astronomical Twilight 7:05 AM AKST 6:20 PM AKST
Moon 12:12 AM AKST (12/6) 12:57 PM AKST (12/6)
Length of Visible Light 6h 53m
Length of Day
4h 15m
Waning Gibbous, 48% of the Moon is Illuminated
Dec 6
Waning Gibbous
Dec 12
New
Dec 19
First Quarter
Dec 28
Full
Jan 4
Last Quarter

Hourly Weather History & Observations

Time (AKST) Temp. Windchill Dew Point Humidity Pressure Visibility Wind Dir Wind Speed Gust Speed Precip Events Conditions
12:53 AM -16.1 °F - -22.0 °F 74% 29.98 in 10.0 mi Calm Calm - N/A   Mostly Cloudy
1:53 AM -16.1 °F - -23.1 °F 71% 29.99 in 10.0 mi Calm Calm - N/A   Mostly Cloudy
3:53 AM -20.0 °F - -26.0 °F 74% 29.99 in 10.0 mi Calm Calm - N/A   Mostly Cloudy
4:53 AM -22.0 °F - -29.0 °F 70% 30.00 in 10.0 mi Calm Calm - N/A   Mostly Cloudy
5:53 AM -22.0 °F - -27.9 °F 74% 30.01 in 10.0 mi Calm Calm - N/A   Scattered Clouds
6:53 AM -23.1 °F - -29.9 °F 70% 30.01 in 10.0 mi Calm Calm - N/A   Scattered Clouds
7:53 AM -26.0 °F - -33.0 °F 69% 30.01 in 10.0 mi Calm Calm - N/A   Scattered Clouds
8:53 AM -27.0 °F - -32.1 °F 77% 30.02 in 10.0 mi Calm Calm - N/A   Partly Cloudy
9:53 AM -27.0 °F - -32.1 °F 77% 30.03 in 10.0 mi Calm Calm - N/A   Partly Cloudy
10:53 AM -27.9 °F - -34.1 °F 73% 30.04 in 10.0 mi Calm Calm - N/A   Scattered Clouds
11:53 AM -27.9 °F - -34.1 °F 73% 30.06 in 10.0 mi Calm Calm - N/A   Scattered Clouds
12:53 PM -25.1 °F - -32.1 °F 70% 30.07 in 10.0 mi Calm Calm - N/A   Partly Cloudy
1:53 PM -24.0 °F - -31.0 °F 70% 30.08 in 10.0 mi Calm Calm - N/A   Scattered Clouds
2:53 PM -25.1 °F - -32.1 °F 70% 30.08 in 10.0 mi Calm Calm - N/A   Scattered Clouds
3:53 PM -26.0 °F - -32.1 °F 73% 30.09 in 10.0 mi Calm Calm - N/A   Scattered Clouds
4:53 PM -27.0 °F -38.7 °F -33.0 °F 73% 30.09 in 10.0 mi North 3.5 mph - N/A   Scattered Clouds
5:53 PM -29.0 °F - -35.0 °F 73% 30.11 in 7.0 mi Calm Calm - N/A   Scattered Clouds
6:53 PM -27.9 °F - -33.0 °F 77% 30.12 in 7.0 mi Calm Calm - N/A   Scattered Clouds
7:53 PM -29.0 °F - -36.9 °F 66% 30.13 in 7.0 mi Calm Calm - N/A   Partly Cloudy
8:53 PM -29.0 °F -41.0 °F -36.0 °F 69% 30.13 in 10.0 mi ESE 3.5 mph - N/A   Partly Cloudy
9:53 PM -29.0 °F - -35.0 °F 73% 30.14 in 10.0 mi Calm Calm - N/A   Partly Cloudy
10:53 PM -29.0 °F - -35.0 °F 73% 30.15 in 10.0 mi Calm Calm - N/A   Partly Cloudy
11:53 PM -29.9 °F - - N/A% 30.16 in 10.0 mi Calm Calm - N/A   Partly Cloudy